Ora Direzione Vento Velocita' Vento Media Vento Raffica Max. Temperatura Wind Chill Pioggia Pressione
11:45:31.0338 °(NNW)5.6 Kts3.3 Kts8.0 Kts12.1 °C11.1 °C0.0 mm1017.1 Hpa
11:23:17.0293 °(WNW)0.0 Kts0.2 Kts8.0 Kts12.1 °C12.1 °C0.0 mm1017.3 Hpa
11:03:31.0203 °(SSW)0.0 Kts0.2 Kts8.0 Kts11.6 °C11.6 °C0.0 mm1017.4 Hpa
10:43:35.0203 °(SSW)0.0 Kts0.2 Kts8.0 Kts11.1 °C11.1 °C0.0 mm1017.5 Hpa
10:23:58.0180 °(S)5.1 Kts4.7 Kts8.0 Kts11.1 °C10.1 °C0.0 mm1017.5 Hpa
10:04:09.0225 °(SW)3.1 Kts1.0 Kts8.0 Kts11.0 °C10.7 °C0.0 mm1017.4 Hpa
09:44:26.0270 °(W)0.0 Kts1.0 Kts8.0 Kts10.9 °C10.9 °C0.0 mm1017.4 Hpa
09:24:58.0270 °(W)0.0 Kts0.2 Kts8.0 Kts10.9 °C10.9 °C0.0 mm1017.5 Hpa
09:05:02.0225 °(SW)0.0 Kts0.2 Kts8.0 Kts10.9 °C10.9 °C0.0 mm1017.6 Hpa
08:45:05.0225 °(SW)0.0 Kts0.2 Kts8.0 Kts10.9 °C10.9 °C0.0 mm1017.6 Hpa
08:25:15.0225 °(SW)0.0 Kts0.2 Kts8.0 Kts10.8 °C10.8 °C0.0 mm1017.5 Hpa
08:05:19.0225 °(SW)0.0 Kts0.2 Kts8.0 Kts10.8 °C10.8 °C0.0 mm1017.3 Hpa
07:45:19.0248 °(WSW)0.0 Kts0.2 Kts8.0 Kts10.8 °C10.8 °C0.0 mm1017.3 Hpa
07:25:31.0248 °(WSW)0.0 Kts0.2 Kts8.0 Kts10.8 °C10.8 °C0.0 mm1017.2 Hpa
07:03:44.0248 °(WSW)0.0 Kts0.2 Kts8.0 Kts10.7 °C10.7 °C0.0 mm1017.0 Hpa
06:44:08.0248 °(WSW)0.0 Kts0.2 Kts8.0 Kts10.7 °C10.7 °C0.0 mm1017.1 Hpa
06:24:24.0248 °(WSW)0.0 Kts0.2 Kts8.0 Kts10.7 °C10.7 °C0.0 mm1017.0 Hpa
06:04:40.0225 °(SW)0.0 Kts0.2 Kts8.0 Kts10.7 °C10.7 °C0.0 mm1016.9 Hpa
05:44:54.0225 °(SW)0.0 Kts0.2 Kts8.0 Kts10.7 °C10.7 °C0.0 mm1017.0 Hpa
05:25:12.0203 °(SSW)0.0 Kts0.2 Kts8.0 Kts10.7 °C10.7 °C0.0 mm1016.9 Hpa